Theta_e
314 313 313 312 311 311 310 310 311 310 311 311 311 312 314 314 314 318 323 323 318 314 320 334 338 335 336 339 339 338 335 333 333 333 334 335 336 337 339 341 344 346 350 357 358 355 351 351 351 351 351 351 351 351 351 352 352 352 353 352 352 352 352 352 353 353 353 354 353 353 353 352 351 351 351 349 348 348 347 346 346 346 347 347 348 348 349
315 312 312 312 311 311 311 311 311 310 311 311 310 311 312 313 316 316 316 319 319 318 327 337 336 333 335 336 336 335 333 333 332 332 333 334 334 335 336 337 339 340 342 346 349 351 352 353 354 352 352 353 352 353 352 353 354 354 354 354 354 353 354 353 353 353 354 354 354 354 353 353 353 352 351 351 350 349 348 347 347 347 346 347 348 349 350
317 315 313 312 312 312 311 311 311 311 310 311 311 311 312 315 319 318 318 320 321 323 333 337 334 332 332 333 334 334 332 332 333 332 333 333 333 334 334 335 336 337 338 341 343 346 348 350 353 353 353 353 352 353 354 353 355 355 355 355 356 354 355 355 354 354 354 354 354 354 354 354 354 353 352 352 351 350 349 348 348 348 348 348 348 349 350
317 315 313 313 313 311 310 312 313 312 311 311 312 311 312 319 327 327 323 323 325 330 333 334 333 332 331 331 333 333 332 332 332 332 333 333 332 332 333 333 334 334 335 337 340 343 346 349 350 351 353 355 354 353 355 354 356 357 357 358 357 357 356 356 356 356 356 356 356 355 355 354 354 354 353 353 352 351 350 350 350 349 349 349 349 350 351
319 316 314 315 313 310 313 316 313 311 312 311 311 314 319 327 333 333 329 328 330 332 331 331 332 332 331 331 332 332 332 332 331 332 333 333 332 332 332 332 332 333 333 336 338 341 344 346 349 350 351 353 355 354 355 355 356 357 359 359 358 359 358 357 358 358 357 357 357 356 356 356 355 355 354 353 353 353 352 352 351 351 351 351 351 351 352
321 319 317 315 312 312 315 316 312 310 312 312 315 322 328 331 331 330 330 331 330 329 328 329 330 330 330 330 330 331 331 332 331 331 332 332 332 332 331 331 331 331 333 334 336 338 342 344 346 348 350 350 352 354 355 355 355 356 359 360 360 360 360 360 359 360 359 359 359 358 358 358 357 356 355 355 354 354 353 353 352 352 352 352 352 352 352
319 322 320 315 313 314 313 312 312 313 313 315 322 329 331 329 327 327 327 328 328 326 325 325 326 328 328 327 327 328 329 330 331 330 329 330 330 331 331 331 331 331 333 334 335 337 340 342 343 345 346 348 350 351 354 355 355 356 358 359 361 361 361 360 360 360 360 360 360 360 359 358 358 358 356 356 355 354 354 354 353 354 353 354 353 353 354
318 319 318 314 313 314 313 315 318 319 320 322 326 330 331 327 325 325 325 326 326 325 323 323 323 324 327 328 328 327 326 327 330 330 328 328 328 329 330 330 330 331 332 333 334 336 339 340 342 343 344 345 348 351 352 353 354 355 357 358 359 360 360 359 360 360 361 361 361 360 360 360 359 359 358 357 356 356 355 354 354 354 354 354 354 354 354
316 317 317 316 314 314 318 321 322 320 320 321 323 327 330 326 322 323 324 324 325 323 322 322 321 322 327 330 327 326 325 325 327 328 328 327 327 327 328 328 329 330 331 333 334 336 338 339 341 342 342 344 348 351 353 354 353 353 355 355 356 357 357 358 358 357 358 360 361 361 361 361 360 359 358 358 357 356 356 354 354 354 354 354 355 355 355
317 316 317 318 317 317 320 322 321 318 316 318 320 323 327 325 321 321 323 324 324 323 322 322 321 324 331 332 326 324 326 325 324 326 327 326 326 326 326 327 328 329 331 332 334 336 337 338 339 341 342 343 346 350 353 356 355 355 355 354 354 354 355 356 357 357 356 356 359 361 362 361 361 360 359 358 358 357 356 355 355 355 354 355 354 355 355
319 316 317 319 317 318 321 321 320 316 315 317 320 321 324 324 319 318 321 323 324 324 323 321 322 325 329 328 324 322 325 326 325 325 326 326 325 325 326 327 328 329 330 332 334 335 336 336 336 339 341 343 346 348 351 354 357 359 359 359 358 357 355 354 355 357 357 355 356 360 362 362 361 361 360 359 359 358 357 356 355 355 355 355 355 356 355
319 317 318 318 316 318 321 321 319 316 315 318 320 320 323 322 316 316 320 321 323 324 323 322 322 323 325 324 322 322 323 324 325 324 324 325 325 325 326 326 327 329 330 331 334 334 334 334 335 337 340 343 346 348 350 352 357 360 359 359 360 360 359 358 357 357 357 358 358 362 364 363 362 362 361 360 359 358 357 357 356 355 355 355 355 356 356
318 318 319 318 316 319 321 319 318 316 316 318 319 319 321 319 315 316 319 320 321 322 323 322 322 322 322 321 321 321 321 322 323 324 323 324 324 324 325 326 328 329 330 330 332 333 332 332 333 334 337 340 343 346 347 349 352 352 350 351 352 355 357 360 360 360 359 360 362 364 365 364 363 362 362 360 360 358 358 357 356 356 355 356 356 356 356
317 318 319 318 317 319 319 318 318 317 317 319 319 318 317 317 317 317 318 319 319 320 321 321 321 320 319 319 319 320 320 321 322 324 324 323 323 324 325 326 328 329 329 330 331 331 330 331 331 331 333 335 337 340 343 345 345 344 344 346 347 350 354 358 362 363 362 362 364 365 365 364 363 363 362 361 360 359 359 358 357 356 356 356 356 356 356
317 317 317 317 317 317 316 316 318 318 319 319 318 316 316 317 318 318 317 317 318 317 318 318 318 318 318 319 319 320 320 320 321 323 323 323 323 323 325 326 327 328 328 329 329 329 329 329 329 329 330 332 333 336 338 339 339 339 341 343 345 347 352 356 361 363 364 363 364 365 366 365 364 364 363 361 360 359 359 358 357 357 357 357 356 357 356
319 318 317 317 319 318 315 315 317 319 318 316 315 316 317 317 317 316 316 315 315 315 315 315 316 317 317 318 319 319 320 321 320 320 322 323 322 322 324 326 327 327 328 329 328 327 327 328 327 327 328 330 331 333 333 334 335 338 339 342 344 347 351 355 358 361 364 364 364 365 365 365 365 363 362 361 361 360 359 359 357 358 357 357 356 357 356
318 318 317 316 317 316 315 315 316 316 315 314 315 316 317 316 315 315 314 313 313 313 313 313 315 316 317 317 318 318 320 320 320 320 321 322 322 321 323 325 326 326 328 328 326 326 326 326 326 327 327 328 329 330 330 331 334 336 338 340 343 347 350 353 355 359 362 363 363 365 365 365 365 364 363 362 361 360 359 359 358 358 357 357 357 357 356
315 314 314 313 313 314 315 314 313 312 313 315 314 314 313 312 312 312 311 311 312 312 312 313 314 316 317 317 317 318 319 320 319 318 319 321 322 322 322 325 325 325 327 327 326 325 326 325 325 326 326 326 327 328 328 329 332 334 336 339 342 346 349 351 353 356 360 363 363 365 365 365 365 365 364 362 362 360 360 360 359 358 358 358 357 357 357
314 314 315 316 316 316 315 313 311 311 313 313 312 311 311 310 310 310 310 310 311 311 311 313 314 315 316 316 316 317 318 319 319 318 319 320 322 322 323 324 325 324 326 327 326 326 325 325 324 325 325 325 326 326 327 328 331 333 335 338 342 345 348 349 352 356 360 362 363 364 365 366 365 365 364 363 362 361 361 360 359 359 359 358 358 357 357
314 314 314 314 314 313 311 310 310 310 311 311 309 309 309 309 308 309 309 310 310 311 312 312 313 314 315 316 316 316 317 319 319 318 319 320 321 323 323 323 323 323 325 327 326 325 325 325 324 324 324 325 325 325 325 328 329 331 334 338 342 345 346 349 352 356 358 361 363 364 365 365 365 365 364 363 363 361 361 361 360 359 359 358 358 358 358
314 313 312 312 311 312 312 312 312 311 310 310 309 309 308 308 309 310 310 310 310 311 312 312 312 313 314 315 316 316 317 318 318 318 319 320 321 323 323 323 322 322 324 326 325 325 324 324 323 323 324 324 324 324 324 326 328 329 332 337 341 343 345 348 352 354 356 359 362 363 365 365 365 365 365 365 364 362 362 362 362 361 360 360 359 359 359
314 313 313 314 313 313 313 312 311 311 310 310 309 309 309 309 310 310 310 310 311 311 311 311 311 312 313 314 315 316 316 317 318 319 319 320 321 322 324 323 322 322 324 325 325 323 323 323 323 323 323 323 324 323 324 325 327 328 332 336 340 341 342 345 349 351 353 357 360 363 364 365 365 366 365 365 365 364 363 363 362 363 362 361 360 360 359
315 313 313 314 314 314 313 311 310 310 310 310 309 309 309 309 310 310 310 310 311 311 311 311 312 312 312 313 314 315 316 316 317 318 319 319 320 321 323 324 322 323 325 325 324 322 321 322 322 322 322 322 322 323 323 325 326 328 331 334 337 338 338 340 345 348 350 353 358 362 364 365 366 366 365 365 364 364 363 363 363 362 362 362 362 361 360
314 314 315 314 314 314 313 311 311 310 309 309 310 309 309 309 310 310 310 310 311 311 311 312 312 312 313 313 314 315 316 316 317 318 318 319 321 321 324 324 323 324 325 325 322 321 320 321 321 321 321 321 320 321 323 324 325 327 330 331 333 334 336 338 341 345 348 350 353 358 362 366 366 366 365 365 364 364 364 363 363 363 363 362 362 362 362
314 317 317 315 314 315 313 311 311 309 308 309 309 309 309 309 310 310 311 311 311 312 312 312 313 313 313 313 314 315 315 316 317 317 319 320 321 323 324 325 323 324 325 324 321 319 320 320 320 319 320 320 319 320 321 322 324 327 328 328 329 332 334 336 339 341 345 348 350 353 358 363 366 367 366 365 363 363 363 362 363 364 364 363 363 362 362
314 317 316 314 313 314 311 310 312 311 308 308 308 308 308 309 310 310 309 309 310 311 312 313 313 314 314 314 315 315 316 316 317 318 319 321 321 322 324 324 323 324 324 322 319 318 319 319 319 319 319 319 318 319 320 321 322 325 326 326 327 329 332 334 334 334 336 340 345 349 354 359 363 364 365 365 365 363 362 361 360 362 363 364 365 363 363
311 314 315 313 313 313 313 312 312 311 308 306 307 307 307 308 309 309 308 308 309 309 310 312 312 313 313 313 314 315 316 317 318 318 319 320 320 322 323 323 323 323 322 319 317 317 318 318 317 318 318 317 317 318 319 319 321 323 325 324 325 326 329 330 329 328 329 333 340 345 349 353 357 360 363 364 364 364 363 360 360 360 362 364 365 365 364
310 311 312 314 315 315 314 311 309 307 306 306 306 306 307 308 309 308 307 308 309 309 310 311 311 312 312 313 314 315 316 317 319 319 319 319 321 322 322 322 322 321 319 317 315 316 316 316 316 317 317 316 316 317 318 319 320 322 323 323 323 324 325 325 325 326 327 329 335 342 346 349 353 357 359 359 360 362 363 361 359 360 361 362 363 365 365
311 310 311 312 312 311 310 309 309 309 308 307 306 306 307 308 308 307 307 308 309 309 310 311 311 312 312 313 314 315 316 317 318 319 319 320 321 322 321 321 321 319 317 315 314 314 315 315 316 316 316 315 316 317 317 318 319 320 321 322 322 322 322 323 323 325 326 328 332 337 343 346 349 352 353 353 355 358 359 359 360 360 360 361 362 361 362
311 310 310 310 310 310 310 311 311 312 310 308 307 307 307 307 308 307 307 308 309 309 310 311 311 312 312 313 315 316 317 318 319 319 320 321 320 319 319 319 319 318 315 314 313 313 314 314 314 315 315 314 314 316 317 317 318 319 319 320 321 321 321 321 321 323 326 328 329 333 337 343 347 348 347 348 351 354 356 357 358 358 359 360 359 358 359
312 311 311 311 310 311 311 311 311 311 310 309 309 309 308 307 307 307 307 308 309 310 310 311 311 312 313 314 316 317 318 318 319 319 318 318 317 317 317 318 317 315 314 312 312 313 313 313 314 315 314 313 314 315 316 317 317 317 318 319 319 320 320 320 319 321 323 326 327 329 331 335 341 344 346 347 348 350 352 355 355 355 357 357 356 356 358
314 312 311 311 311 311 311 311 311 311 310 309 310 310 308 308 307 307 307 309 310 310 311 311 312 313 314 315 316 317 318 318 318 316 315 315 315 315 315 315 315 313 312 311 311 312 312 312 313 314 313 313 313 314 316 316 316 316 316 317 318 319 319 319 318 319 320 322 323 325 327 328 331 337 342 346 347 349 350 352 352 353 353 354 354 355 357
315 314 313 312 311 311 312 311 310 310 311 310 309 308 307 306 307 307 308 309 310 310 311 312 311 312 314 315 317 317 318 317 315 314 313 313 313 313 313 313 313 311 310 309 310 310 311 312 313 313 312 312 312 314 315 316 315 315 315 316 316 317 318 318 317 318 318 319 319 321 323 325 327 329 334 341 346 349 349 349 350 351 351 352 352 353 355
315 315 315 314 312 312 313 314 312 312 312 310 308 306 306 306 307 307 308 309 310 310 311 311 310 310 311 313 315 316 316 315 314 313 312 311 311 312 312 312 311 310 309 308 309 309 310 312 312 312 311 311 312 313 315 315 315 314 314 315 316 316 316 316 316 316 317 317 317 317 319 321 324 325 327 331 338 345 349 349 349 349 350 350 350 351 351
310 312 311 310 308 309 310 311 312 313 313 311 309 308 307 307 307 307 308 309 309 309 310 310 310 309 309 310 312 314 314 313 312 311 311 310 310 310 310 310 310 309 308 308 308 309 310 311 311 311 310 311 311 313 314 314 314 313 313 314 315 315 314 314 315 315 315 315 315 316 316 318 320 322 323 325 330 337 344 348 349 349 348 349 348 347 347
309 312 312 308 307 307 307 307 308 309 309 309 309 308 307 307 307 307 308 308 308 309 310 310 309 308 308 308 310 311 312 311 310 310 309 308 308 309 309 309 309 309 308 308 308 309 310 310 310 310 310 310 311 312 313 314 314 312 311 312 313 313 313 312 312 313 313 313 313 314 315 315 317 319 321 322 324 329 334 340 346 348 347 344 341 340 341
308 310 310 307 306 307 307 307 307 308 307 307 308 308 308 308 307 307 307 308 308 308 309 309 309 308 307 307 307 308 309 310 309 309 308 308 307 308 308 308 308 308 308 308 308 309 310 309 308 308 308 309 309 310 312 313 312 311 310 311 312 312 311 311 311 311 311 311 311 312 312 313 314 315 316 318 319 321 323 327 332 337 339 336 334 334 335
308 308 308 307 307 308 308 308 308 309 308 308 308 308 308 308 307 307 307 307 307 308 308 308 309 308 307 307 307 306 307 307 308 308 308 307 307 307 307 307 308 308 308 307 307 309 310 309 307 306 307 308 308 309 310 312 311 310 309 310 310 310 310 310 310 310 310 310 310 310 310 311 311 311 312 313 313 314 315 317 320 322 325 325 326 326 325
309 308 308 308 308 308 308 308 308 308 308 309 308 307 307 307 307 307 307 306 306 307 307 307 307 308 307 307 307 306 306 306 306 306 307 307 307 307 307 307 307 307 307 307 307 308 309 308 307 306 306 307 307 308 309 310 310 309 309 309 309 309 309 309 308 308 308 308 308 308 308 309 310 310 310 310 310 310 311 312 313 314 314 314 315 316 315
310 307 307 307 307 308 308 308 308 308 308 308 308 307 307 307 307 307 307 306 306 306 306 306 306 306 306 306 306 306 306 305 305 304 305 305 306 306 306 305 306 306 306 306 306 306 307 307 307 305 305 306 307 307 307 308 308 308 308 308 308 308 308 308 307 307 307 307 307 307 307 307 308 308 308 308 308 308 308 308 308 308 308 308 307 308 308
308 307 307 307 307 307 307 308 308 308 308 307 307 307 307 307 307 307 306 305 304 304 305 305 305 305 304 304 304 304 304 304 304 304 304 304 305 305 305 305 305 306 306 305 305 305 306 306 306 306 305 305 306 306 306 306 306 307 307 307 307 307 307 307 306 306 306 306 306 306 306 305 306 306 306 306 306 306 306 306 306 306 305 305 305 305 304
308 307 307 306 307 307 307 307 308 308 308 308 308 307 306 307 307 306 305 304 304 304 304 304 304 303 303 302 302 302 302 303 303 303 303 303 303 304 304 304 304 305 305 305 304 305 305 305 306 306 305 304 305 305 305 305 305 306 306 306 306 306 306 306 306 305 306 305 305 305 305 305 305 305 305 305 305 304 304 304 304 304 303 303 303 303 302
307 307 306 306 307 307 306 307 307 307 308 308 307 307 306 307 307 306 305 304 305 304 304 304 304 304 303 302 302 302 302 302 302 303 302 302 301 301 302 303 303 304 304 304 304 304 304 304 305 305 305 304 304 304 304 304 304 304 305 305 306 305 305 305 305 305 305 305 304 305 305 304 304 304 304 304 304 303 303 303 302 302 301 301 301 300 300
308 307 306 307 307 307 306 307 306 307 307 307 307 307 306 307 307 307 306 305 305 305 304 304 304 304 304 303 303 303 303 302 302 302 302 302 301 300 300 301 302 303 303 303 303 303 304 304 304 304 304 304 303 303 303 303 303 303 303 304 305 304 304 304 304 304 304 304 304 304 304 304 304 304 304 303 303 303 302 302 302 301 301 300 300 299 299
308 307 307 307 307 307 306 306 306 306 307 307 307 307 306 306 306 306 306 306 306 305 305 304 304 304 304 304 304 303 302 302 302 302 302 302 302 301 300 300 301 302 302 303 302 303 303 303 303 303 303 303 302 302 302 302 302 302 303 303 303 303 303 303 303 303 303 303 303 302 303 302 303 303 303 303 303 302 302 301 301 300 300 299 299 298 298
308 307 308 308 307 307 307 307 306 306 307 307 307 307 307 306 306 306 306 305 306 305 305 304 304 304 304 304 304 303 302 302 301 301 301 302 301 301 300 299 300 300 301 302 302 302 302 302 302 302 302 302 302 301 302 302 302 302 302 302 302 302 302 302 302 303 302 302 302 302 302 302 302 302 302 302 302 301 301 301 300 300 299 298 298 297 297
308 308 308 307 307 307 307 307 306 306 306 306 306 306 306 306 306 306 306 305 305 305 304 304 304 304 304 304 304 303 303 303 301 300 300 300 300 300 299 299 299 299 300 300 301 301 302 301 301 300 300 301 300 301 301 301 301 301 301 301 301 301 301 301 301 301 301 301 301 301 301 301 301 301 301 301 301 301 300 300 300 299 299 298 298 297 297
308 308 307 307 307 307 307 307 306 306 306 305 306 306 306 305 305 306 306 305 305 305 304 304 304 303 303 303 303 303 303 303 302 301 300 299 299 299 299 298 298 298 298 298 299 300 301 301 300 300 299 299 300 300 300 300 301 301 301 301 301 301 301 301 301 301 301 301 301 300 301 301 300 300 300 300 300 300 300 300 300 299 299 299 298 298 298
308 308 307 307 307 307 307 307 307 306 305 306 306 306 305 305 305 306 305 305 305 304 304 304 304 304 304 304 303 302 303 303 302 301 299 298 299 299 298 298 298 297 297 298 298 299 299 299 299 299 299 299 299 299 299 300 300 300 300 300 300 300 300 300 300 300 300 300 300 300 300 300 300 300 300 299 299 299 299 299 299 299 299 298 298 299 299
308 308 307 307 307 307 307 307 307 306 306 306 306 306 305 305 305 305 305 305 305 304 304 304 304 304 303 303 302 301 301 302 302 301 300 299 298 298 298 298 297 297 297 297 297 298 298 298 298 298 298 298 298 298 299 299 299 299 299 299 299 299 300 299 299 299 300 299 299 299 299 299 299 299 299 298 298 298 298 298 298 298 298 298 298 298 298
308 307 307 306 306 307 306 306 306 306 306 306 306 305 305 305 305 305 305 305 305 304 304 304 303 303 303 302 301 300 301 301 301 300 299 299 299 298 297 297 297 296 296 296 296 296 297 297 297 297 297 297 298 298 298 298 298 298 298 298 298 298 298 298 298 299 299 298 298 298 298 298 298 298 298 297 297 297 297 297 297 298 298 298 298 298 297
307 307 307 307 307 306 306 306 306 306 305 305 306 306 305 305 306 305 305 305 304 304 304 304 304 304 302 301 300 299 300 301 301 300 300 299 299 298 297 296 295 295 295 295 295 296 296 296 297 297 297 297 297 298 298 297 297 298 297 298 298 298 298 298 298 297 298 298 297 297 297 297 297 297 297 297 297 297 297 297 297 297 297 298 298 298 298
Wind_Speed
3 3 3 2 1 2 3 4 7 8 8 7 4 3 5 2 1 5 9 8 8 8 8 8 9 10 11 11 12 11 10 13 15 16 18 19 19 19 18 18 17 16 15 12 7 2 5 11 15 17 19 22 25 27 29 31 33 34 35 36 36 36 36 37 38 38 38 38 38 37 37 37 37 37 36 36 36 36 35 35 35 34 34 33 33 33 33
2 2 3 3 3 3 4 5 6 7 7 7 6 5 6 5 5 7 9 11 9 5 4 6 6 7 8 8 10 11 13 14 15 16 17 17 17 18 17 16 16 15 15 14 13 12 9 3 5 11 16 19 23 25 27 29 31 33 35 35 36 36 36 37 38 38 37 37 36 36 36 36 36 36 36 36 35 35 35 35 35 34 33 33 33 32 32
4 4 4 4 4 3 4 5 6 6 6 6 5 4 4 4 5 6 8 9 7 4 4 6 6 6 8 10 12 13 13 13 14 15 16 17 16 16 16 15 15 15 15 14 14 15 16 16 11 3 6 14 20 22 24 26 29 32 34 35 36 37 37 37 37 37 36 36 36 36 36 36 36 36 36 36 36 35 35 35 35 34 33 32 33 32 32
4 4 6 6 6 6 5 5 6 5 3 3 3 4 5 4 4 5 6 5 4 5 7 7 6 7 10 11 11 11 10 12 14 14 15 15 16 16 16 15 14 15 15 14 14 15 17 18 18 16 9 2 12 18 21 23 25 28 31 33 34 35 36 36 36 36 36 36 36 36 36 36 36 36 36 35 36 35 35 35 35 34 34 33 33 33 32
3 4 4 5 6 6 5 4 2 1 2 4 5 5 5 4 2 3 4 3 3 6 8 8 8 7 9 9 8 9 9 10 12 12 13 13 14 14 15 15 13 13 13 13 15 18 19 19 19 18 17 11 1 10 18 21 23 25 28 30 32 33 33 34 35 35 36 35 35 36 36 37 36 36 36 36 36 36 36 35 35 34 35 35 34 33 33
2 5 4 4 4 3 4 3 1 1 3 4 3 4 4 3 3 2 3 4 5 7 8 9 8 6 7 6 6 7 7 8 9 11 11 11 12 13 14 16 14 12 13 15 18 20 21 21 21 19 18 17 13 3 9 17 20 21 21 23 24 27 30 33 34 35 35 35 36 36 36 36 36 36 36 36 36 36 36 35 35 35 35 35 35 34 34
1 3 4 4 2 4 4 5 4 4 3 3 3 5 3 3 6 5 6 7 7 7 7 7 7 3 5 6 7 8 8 7 7 8 8 9 11 11 12 14 15 15 17 19 22 23 22 23 23 21 20 20 18 12 2 10 17 19 19 19 19 19 22 27 31 34 35 35 35 36 36 36 36 36 36 36 36 36 35 35 35 35 35 35 35 35 35
0 1 2 1 4 4 4 6 5 4 2 2 3 4 2 4 6 5 6 6 6 7 7 7 8 4 4 5 7 8 9 8 7 7 7 8 9 9 10 12 14 17 21 22 23 24 24 24 22 21 22 22 20 17 11 2 10 16 19 21 22 22 20 21 24 28 32 35 35 35 35 36 36 35 35 36 36 36 35 34 34 34 34 34 35 35 35
1 1 2 2 4 6 5 3 3 4 3 2 3 3 3 3 5 5 5 6 6 7 7 7 11 8 3 3 5 7 8 9 8 6 7 8 8 9 12 14 15 17 20 21 23 25 26 26 24 23 25 24 20 18 15 9 2 8 16 20 22 24 24 24 24 24 27 31 34 35 35 35 35 36 36 36 36 36 35 34 34 34 34 34 34 35 35
2 2 2 3 3 3 3 3 2 2 3 4 1 1 2 2 5 6 6 6 6 7 7 8 10 8 1 1 5 6 7 8 9 9 9 10 11 11 14 16 17 17 19 20 21 23 23 24 25 25 25 23 19 18 17 14 10 4 7 12 14 17 20 24 25 24 25 28 31 33 35 35 36 36 36 36 37 37 36 36 35 35 35 35 35 35 36
2 3 2 2 2 4 5 4 4 5 4 3 1 1 2 1 5 7 7 7 7 6 7 8 7 5 2 2 4 6 6 6 7 9 10 12 14 14 14 16 17 18 19 19 19 20 19 21 23 22 22 21 17 16 17 17 13 8 6 6 7 10 13 16 20 23 25 28 31 33 35 36 36 36 37 37 37 37 37 36 36 35 35 34 34 35 35
3 3 3 3 2 4 4 4 5 7 5 1 1 3 3 1 5 7 6 8 7 5 5 6 4 3 2 3 5 7 7 6 6 8 11 12 14 15 15 16 18 19 19 18 17 18 20 22 22 20 19 19 15 14 15 16 14 10 10 9 8 9 10 12 16 20 23 29 35 36 36 37 37 36 37 36 36 36 35 35 35 34 34 34 34 35 35
4 4 3 3 3 3 4 4 5 6 4 1 2 4 3 3 7 7 5 8 9 6 5 4 2 2 2 4 6 7 7 7 6 7 11 14 15 17 17 17 19 19 19 18 16 16 19 22 22 21 18 16 14 13 12 12 13 15 17 17 15 12 11 12 15 17 20 29 37 39 38 38 37 36 36 36 35 36 35 35 34 33 33 33 33 34 35
2 2 2 3 4 2 2 2 5 3 0 2 3 2 2 4 6 6 6 7 8 7 6 5 5 5 5 5 6 7 7 7 7 7 10 13 15 18 20 20 18 17 17 17 16 16 17 19 20 20 18 15 13 12 11 11 14 17 20 20 19 17 14 13 14 14 17 26 35 38 38 38 37 36 36 36 35 36 35 34 33 33 33 33 33 33 34
1 1 1 3 3 2 1 2 4 1 2 3 3 4 3 3 5 6 6 6 6 7 8 7 8 9 8 6 6 7 6 7 7 8 9 11 13 15 18 19 18 16 15 16 16 16 16 17 18 18 16 15 13 12 11 12 15 18 20 20 21 19 16 15 15 15 16 22 31 35 35 36 37 37 36 36 35 35 34 33 33 33 33 33 32 32 32
2 2 3 4 3 4 3 2 1 3 4 3 4 4 3 3 4 5 5 5 6 6 8 9 10 11 10 7 6 7 7 7 7 8 9 11 14 14 15 17 19 18 15 15 17 18 17 18 19 17 15 14 14 13 14 16 16 17 18 20 21 19 16 16 17 16 16 21 28 33 35 36 37 36 35 35 35 34 34 33 31 31 32 32 31 30 30
3 4 6 5 3 3 3 3 4 5 6 5 4 3 3 3 3 4 5 7 8 7 7 9 9 9 10 9 7 7 8 7 7 8 9 11 14 14 14 15 17 17 17 15 16 17 18 19 20 19 16 14 13 14 17 18 16 16 17 18 19 19 17 16 17 17 17 19 25 31 35 36 36 36 35 34 33 33 33 33 31 31 30 31 31 30 29
3 4 6 6 5 4 3 3 4 5 5 4 2 2 3 3 4 5 6 8 9 9 8 8 8 8 10 11 8 7 8 8 8 9 10 12 14 15 13 13 15 17 18 16 15 15 17 19 21 20 18 16 14 17 20 20 17 17 17 18 18 17 17 18 19 18 17 18 23 30 34 36 37 37 36 34 33 33 33 33 33 32 30 30 30 29 29
2 3 4 4 4 4 4 4 5 5 5 4 2 2 4 5 5 6 8 9 10 10 10 9 8 8 9 11 10 7 6 8 9 9 10 11 13 14 13 12 13 15 16 16 16 16 16 19 22 21 20 18 17 19 21 20 19 18 18 18 17 17 17 19 19 18 17 17 20 27 32 35 35 35 35 35 33 32 32 32 31 30 29 28 28 28 28
3 5 6 4 4 6 6 5 5 5 4 4 4 4 5 5 7 8 9 10 9 9 10 9 9 9 9 10 11 8 6 7 9 10 11 12 13 14 13 12 12 12 13 14 16 17 16 19 22 23 21 20 21 21 21 20 19 18 17 17 17 17 18 18 18 18 18 16 17 23 29 31 33 33 33 34 33 33 35 36 33 31 31 30 30 31 30
3 7 8 4 4 6 6 4 4 4 3 4 6 6 6 7 8 8 10 11 10 10 11 11 10 11 10 9 10 11 8 6 8 12 15 15 15 15 13 12 12 12 11 11 14 15 17 18 20 21 21 21 22 23 21 20 19 18 17 16 16 17 17 18 18 19 20 18 14 19 25 28 31 34 35 37 37 38 40 42 41 39 37 35 36 35 33
4 7 6 3 2 5 5 4 5 4 4 4 6 7 7 7 8 8 9 11 12 13 15 14 11 10 10 9 10 11 10 8 10 15 18 17 16 15 13 12 13 13 11 10 12 14 16 18 19 20 20 20 22 23 22 20 20 18 17 15 15 15 16 17 18 20 22 21 16 16 22 25 27 31 33 36 39 39 39 41 44 44 43 41 40 39 36
7 8 7 5 4 4 6 5 5 4 4 4 6 8 8 8 8 9 9 10 11 11 14 17 15 11 11 12 12 10 12 14 16 17 20 20 18 16 14 12 13 14 12 11 12 13 15 17 18 19 19 19 20 22 22 21 21 19 16 15 14 14 16 16 17 19 21 21 18 14 19 25 26 26 28 32 36 39 39 38 39 43 44 43 42 40 38
7 6 6 6 6 5 6 5 4 4 4 4 6 7 7 8 9 10 10 10 12 11 11 16 19 17 15 16 15 11 13 19 20 18 20 22 20 16 13 12 13 13 12 11 11 12 13 14 16 18 18 18 19 20 20 21 21 18 16 15 15 15 16 16 17 18 19 20 20 16 15 20 25 25 24 26 29 35 38 37 35 38 41 43 42 41 40
7 5 5 7 6 6 5 4 4 5 5 5 5 6 8 10 12 13 12 11 13 14 11 12 18 20 18 17 17 14 15 20 22 21 21 21 19 15 12 12 13 12 10 9 10 11 12 12 14 15 16 17 20 20 19 20 20 17 16 17 16 15 16 17 17 17 17 18 18 17 14 15 21 25 25 25 25 29 33 35 34 35 37 41 43 42 42
7 4 4 3 2 4 3 2 4 4 5 5 5 7 11 13 15 16 15 14 16 17 15 13 16 20 20 18 18 18 18 20 24 24 21 18 17 14 12 11 11 10 8 8 9 10 10 10 12 13 14 17 21 21 20 21 20 16 15 17 16 15 16 17 17 16 16 17 17 16 15 13 16 19 21 23 24 24 24 26 28 30 33 37 40 42 42
6 4 5 2 4 5 4 4 5 5 5 7 7 8 12 15 16 16 16 16 18 18 18 18 18 19 20 20 19 19 19 21 22 22 20 18 16 14 12 10 8 7 7 7 8 10 10 10 11 12 14 18 21 20 20 21 20 17 15 16 16 16 15 16 17 18 18 17 16 16 16 15 15 15 17 21 23 24 24 24 25 27 31 35 38 41 42
6 5 6 6 6 7 6 5 6 5 6 9 10 11 13 14 13 13 12 13 14 15 17 19 19 18 18 19 19 18 18 19 18 18 19 18 13 11 10 8 6 5 5 6 8 10 10 11 12 13 15 20 21 20 19 21 20 18 16 15 15 16 16 18 19 20 20 18 17 17 18 18 19 20 22 22 21 24 26 27 26 27 28 30 33 36 39
6 6 6 7 8 6 3 3 3 4 6 9 11 12 11 10 9 9 10 11 12 13 14 15 17 18 17 18 19 17 15 15 15 16 18 15 10 7 6 6 6 5 5 7 10 10 11 12 13 15 18 22 22 19 18 19 19 18 16 15 15 16 17 19 19 19 19 19 18 18 19 20 22 24 24 23 21 21 22 24 25 25 25 25 27 30 32
7 6 6 7 6 5 4 4 5 5 5 7 8 8 9 9 8 9 11 12 11 12 13 14 17 17 17 18 19 18 16 15 14 14 13 11 8 6 4 4 5 6 7 9 11 11 10 12 13 15 19 22 21 19 18 18 18 17 16 15 14 15 17 18 18 17 18 19 19 20 19 19 22 24 23 22 23 22 22 23 25 25 25 26 27 28 30
6 6 7 6 6 5 6 6 5 5 5 5 6 7 7 9 9 10 11 11 10 10 14 16 15 15 16 18 18 18 17 15 10 10 11 9 7 5 4 3 1 3 6 9 11 10 10 12 13 15 19 21 19 17 17 18 19 17 16 14 14 15 16 18 18 16 15 16 18 20 19 18 19 21 21 21 21 21 23 24 24 24 26 26 27 28 30
5 5 5 5 5 5 6 5 4 5 6 5 5 6 7 7 9 10 11 11 11 13 15 14 12 14 16 18 16 14 14 11 9 12 12 9 6 5 6 6 5 5 6 9 10 10 11 12 14 15 18 19 17 15 16 18 19 17 15 14 15 15 15 17 19 17 15 15 17 18 18 18 19 19 19 21 21 22 24 23 22 23 25 25 26 29 31
6 4 4 5 5 5 5 5 5 5 6 5 5 6 7 8 9 10 11 13 14 14 13 11 14 18 16 14 15 13 10 9 10 10 9 9 8 7 7 6 6 6 8 10 11 11 12 13 14 16 17 16 16 15 14 17 18 17 14 13 15 15 15 17 18 17 16 16 17 17 17 17 18 19 19 20 20 22 23 23 23 25 26 27 29 32 32
9 7 7 8 8 7 6 6 5 5 5 5 5 6 8 10 10 12 14 15 13 12 12 13 16 21 20 13 8 10 10 9 8 6 6 9 10 8 7 7 6 7 9 11 12 13 14 14 15 16 16 14 14 14 14 16 18 16 13 13 13 14 15 16 17 16 16 17 17 18 17 16 15 16 18 20 20 19 22 25 27 27 27 27 27 28 29
10 7 6 7 9 8 7 6 5 5 5 4 4 5 8 10 12 13 16 17 15 14 14 15 15 19 21 18 8 7 10 9 9 9 8 9 10 10 10 8 7 7 10 13 14 14 14 14 15 15 14 13 13 14 15 16 16 14 12 11 11 12 14 15 15 15 15 16 17 18 18 16 14 14 16 17 18 18 19 24 28 29 27 25 24 24 24
10 6 4 6 9 10 9 8 7 7 6 5 4 5 7 10 12 13 15 17 19 18 16 14 15 18 19 18 15 13 13 12 12 11 10 9 10 10 10 9 7 8 10 13 15 16 15 15 15 14 13 13 13 14 15 16 15 12 10 10 10 12 14 15 15 16 16 16 17 17 17 16 14 14 15 15 14 14 15 17 23 27 25 20 17 16 16
11 9 7 8 10 11 11 10 10 8 6 6 5 5 7 10 12 14 14 16 19 19 16 14 14 15 15 16 17 16 15 14 12 12 11 11 10 10 9 8 8 8 8 11 14 16 15 15 16 15 14 14 14 14 14 16 15 12 11 11 11 12 14 16 17 17 17 17 17 17 17 18 18 17 18 18 16 15 15 13 10 11 14 14 15 17 18
12 13 12 11 11 12 11 10 9 8 6 5 5 5 7 8 11 13 14 15 17 18 17 15 12 12 13 14 16 16 17 16 15 13 13 12 10 10 10 9 8 8 8 10 13 14 14 15 17 17 17 16 16 14 13 14 13 12 12 13 13 14 15 17 18 18 18 18 18 18 19 20 21 21 21 22 21 20 19 17 14 9 7 12 16 19 21
8 10 11 11 10 10 9 8 8 7 6 6 6 6 6 8 10 12 13 15 16 16 16 14 12 11 12 12 12 13 16 18 17 16 14 12 10 9 10 11 12 12 11 12 14 14 12 13 16 18 18 17 16 15 13 12 12 12 13 13 14 15 16 17 18 19 20 19 19 20 21 21 23 24 24 24 25 25 24 22 19 18 16 15 16 20 23
6 8 9 9 9 9 7 7 7 7 6 5 5 4 4 7 9 11 12 14 15 15 15 14 12 11 11 11 11 12 14 16 17 17 15 13 11 9 9 12 16 16 13 13 15 15 13 13 15 16 17 16 15 15 13 11 11 13 14 15 15 16 16 18 20 21 21 20 20 21 23 24 25 25 26 27 27 27 26 25 23 21 20 19 19 21 24
7 9 10 10 9 9 8 8 8 8 7 5 3 2 3 5 8 9 10 11 13 14 16 16 14 13 12 12 13 14 15 15 16 17 17 16 14 10 8 12 17 17 14 13 14 15 15 15 15 14 15 16 15 14 13 12 13 14 14 15 16 17 17 19 20 21 21 21 22 22 24 26 27 27 27 28 28 27 26 25 23 22 22 22 21 22 24
9 11 11 10 10 11 10 10 9 8 7 6 4 1 2 4 7 8 8 9 11 13 14 15 14 13 13 14 15 16 17 15 15 16 17 18 17 13 10 13 18 18 13 12 15 16 17 17 15 14 15 15 14 13 13 14 15 15 14 14 16 17 17 18 19 20 20 22 23 24 25 26 27 27 28 28 28 27 27 25 23 22 22 22 22 21 21
11 13 12 10 11 13 13 11 10 9 7 6 4 2 1 3 5 6 7 8 9 10 11 12 12 12 13 14 14 14 15 15 14 13 13 16 19 19 16 17 20 18 14 12 14 16 16 16 15 15 15 15 14 14 15 16 16 16 16 15 16 17 17 18 20 21 22 23 24 24 25 25 26 27 27 27 27 27 27 26 24 23 24 25 25 22 20
14 14 13 13 13 14 13 11 10 8 7 6 5 3 1 3 4 5 5 6 7 7 8 9 10 11 11 12 11 11 12 13 13 12 10 10 14 19 20 19 19 19 17 15 15 16 16 16 15 15 15 15 15 16 17 18 17 17 17 17 17 17 18 20 22 23 23 24 24 24 24 24 25 26 26 26 26 27 28 26 23 22 25 28 27 23 20
16 15 15 15 14 14 13 12 9 7 6 7 7 5 2 2 4 5 5 5 5 6 6 8 8 9 9 9 9 9 11 12 13 13 12 9 10 14 18 18 19 19 19 18 17 17 17 17 17 17 17 17 17 18 19 19 19 18 18 17 17 17 18 20 23 24 24 25 26 26 25 24 25 25 26 26 26 27 27 26 24 24 26 29 28 23 21
16 15 16 17 15 14 13 12 8 7 7 8 8 6 3 2 3 5 6 5 5 6 6 7 8 8 9 9 9 9 10 12 14 15 15 12 11 13 15 16 17 18 19 20 20 20 18 18 19 20 20 20 20 20 20 20 20 20 20 18 18 18 19 20 22 23 24 26 26 26 26 26 26 26 27 27 27 27 27 27 27 27 27 29 28 25 22
14 15 16 16 14 13 13 11 8 7 8 8 7 6 5 4 4 6 6 5 5 5 6 7 8 9 9 10 10 10 10 11 12 14 15 15 14 14 16 16 16 17 19 20 21 21 20 20 20 21 22 22 22 21 21 21 21 22 21 20 19 19 19 20 21 22 24 26 27 27 27 27 27 27 28 28 28 28 27 27 28 28 28 28 29 27 26
15 15 15 15 15 14 13 11 9 7 7 7 8 9 8 6 5 5 5 5 5 5 6 7 8 9 9 9 10 10 10 9 9 12 15 15 14 14 15 16 17 17 17 18 20 21 21 20 21 21 23 23 23 21 21 22 23 22 22 21 20 20 19 19 20 21 23 26 28 28 28 28 27 27 28 28 28 28 28 27 27 27 28 28 27 27 26
13 14 13 14 15 15 13 11 8 6 5 6 9 12 11 8 6 5 5 5 6 6 6 6 6 8 8 8 9 10 10 8 6 9 13 15 14 14 14 15 16 17 17 18 19 20 20 20 21 21 22 23 22 21 21 22 23 23 23 22 22 21 20 20 20 21 22 24 26 27 27 27 27 27 27 28 28 29 29 29 28 28 28 27 27 26 27
11 13 13 13 14 14 13 10 7 5 6 8 11 13 12 9 7 5 4 5 5 5 5 6 7 8 8 7 8 10 11 9 7 9 12 14 14 14 14 14 15 16 17 17 18 19 20 21 21 22 22 22 21 20 20 21 22 23 23 23 23 23 22 22 22 23 24 25 26 27 27 27 27 27 27 28 28 29 30 31 30 30 29 29 28 28 28
6 9 13 15 14 14 12 9 6 6 9 11 13 14 13 11 8 5 4 4 4 4 5 7 8 8 8 8 9 11 13 11 10 10 11 13 14 15 16 16 15 15 16 17 17 18 19 19 20 21 22 21 20 20 20 21 21 21 21 22 22 23 23 23 24 24 25 26 27 28 27 27 27 27 27 27 27 28 29 29 30 30 29 29 28 27 26
2 6 12 14 12 11 9 7 6 8 12 13 13 14 14 12 9 6 5 4 4 5 6 8 8 7 7 8 10 12 14 13 11 9 9 10 12 15 17 17 16 16 16 17 17 17 18 18 18 19 20 21 21 21 21 21 21 21 20 20 20 21 22 23 24 24 24 25 26 27 27 28 28 28 28 28 28 27 27 28 28 28 27 26 25 24 23
Wind_Direction
225 220 247 282 341 294 306 316 313 320 325 324 322 265 255 274 248 257 274 293 298 290 307 343 2 1 357 357 351 350 15 22 10 5 8 10 11 11 14 17 16 13 9 5 11 65 177 192 200 203 203 204 203 202 202 201 200 201 202 203 205 206 208 210 212 213 214 215 216 217 218 219 220 222 224 226 227 227 228 228 229 231 232 234 236 237 238
327 316 331 17 35 347 317 306 295 302 305 300 296 272 262 264 244 247 270 284 281 276 311 356 21 8 357 6 8 9 19 20 13 11 10 8 6 6 8 10 10 10 9 5 7 14 21 33 198 201 201 204 204 204 204 202 201 202 201 202 204 206 208 210 212 213 214 215 216 217 217 219 220 221 222 224 226 227 228 229 230 231 232 233 234 235 236
327 331 357 6 4 326 297 286 275 282 298 305 308 299 287 284 271 266 275 282 285 301 343 8 27 19 14 22 20 19 19 15 13 14 11 7 3 360 1 2 5 7 5 4 6 9 9 10 14 26 203 205 205 207 206 203 203 202 201 202 204 206 208 211 212 213 213 214 215 216 217 218 219 221 222 222 224 226 227 229 230 231 231 232 233 234 235
302 320 358 347 336 329 305 275 253 253 289 324 320 308 294 286 286 287 285 292 309 325 343 5 21 27 32 29 20 18 15 14 16 14 10 7 0 354 352 353 359 4 2 1 1 359 357 1 9 15 14 215 202 207 208 206 205 203 202 204 205 207 209 210 211 212 213 214 214 215 216 218 219 220 221 222 222 223 225 227 229 230 231 231 232 233 234
282 296 339 344 346 346 315 270 205 148 335 322 320 317 305 307 335 307 287 299 333 332 347 3 9 26 39 31 22 19 8 10 19 13 7 5 358 352 347 344 353 1 358 357 357 352 350 353 359 6 13 17 7 207 206 206 204 202 204 206 207 209 210 210 211 212 212 213 214 215 216 217 218 220 220 220 221 222 223 225 226 228 230 231 232 232 232
264 279 322 0 357 330 271 255 157 31 300 292 297 296 298 344 15 343 318 345 355 353 359 360 358 28 52 35 27 28 9 7 18 12 4 358 352 352 347 339 345 356 353 351 353 350 348 349 352 357 6 9 8 348 203 200 198 197 200 205 209 212 212 212 212 212 212 213 213 215 216 217 218 218 218 220 221 222 223 223 224 226 227 229 231 231 231
224 291 15 16 283 241 267 304 312 290 255 206 239 264 266 23 16 2 1 359 356 360 359 348 343 22 94 66 40 30 12 6 12 6 357 354 350 349 344 338 341 348 349 349 349 346 344 346 347 350 357 3 2 359 321 197 195 193 191 193 201 210 217 219 217 213 212 212 213 215 215 216 217 217 218 219 220 221 222 222 223 224 226 228 229 230 231
144 33 76 196 248 267 319 337 340 344 3 42 353 307 312 33 20 7 1 352 348 353 351 344 335 306 160 107 50 30 11 1 4 358 345 348 348 340 336 337 339 340 341 342 342 339 339 344 344 345 351 358 359 357 352 259 200 199 197 196 197 201 211 223 226 223 218 213 212 215 215 215 216 216 217 219 220 221 221 222 223 224 225 226 228 229 230
136 138 209 253 314 329 337 347 1 8 353 336 349 324 295 0 17 3 348 344 348 350 347 348 338 312 215 124 34 24 12 352 344 340 332 334 339 336 335 335 333 334 336 339 341 340 340 342 343 344 348 352 358 0 354 346 299 207 208 209 208 205 205 210 218 228 230 222 215 214 215 215 215 216 217 218 219 219 219 220 221 222 223 225 227 228 228
125 126 261 306 331 305 262 236 266 316 288 262 273 302 273 331 5 354 342 338 342 348 348 348 343 332 299 70 356 357 2 348 336 332 329 332 336 336 333 328 328 334 339 341 344 346 342 340 343 346 344 345 355 4 355 344 344 310 235 229 228 224 217 211 210 217 230 234 225 217 215 216 216 217 217 217 218 219 218 218 219 220 222 224 225 227 227
122 133 209 234 229 243 239 241 272 300 289 238 189 292 262 302 351 344 337 332 334 346 346 345 354 7 26 4 326 326 336 337 331 326 327 334 338 335 332 330 329 334 340 341 345 349 344 339 341 344 342 340 350 5 357 339 331 326 308 288 273 263 248 230 218 214 219 231 232 224 219 219 219 218 218 218 218 218 218 219 220 220 220 221 223 225 227
188 182 221 226 227 241 232 234 281 304 313 335 329 283 265 326 339 328 325 324 323 330 333 337 3 32 359 313 301 310 318 316 315 324 327 331 331 327 330 334 333 336 342 343 345 348 344 338 339 344 346 343 348 4 359 338 328 338 343 337 326 304 284 261 241 226 218 223 229 227 223 222 222 220 219 218 218 217 218 219 220 220 220 220 222 224 226
219 219 233 259 261 236 209 226 272 297 325 350 235 239 255 318 318 312 316 315 312 315 323 324 325 309 286 282 287 299 312 313 310 323 327 326 325 324 329 335 337 339 343 341 339 341 341 340 342 346 348 349 349 357 359 342 336 344 344 339 335 327 312 291 270 251 231 224 225 225 224 223 223 222 220 218 217 216 216 217 218 219 220 220 221 224 225
219 203 207 277 279 235 180 258 286 294 178 206 232 249 282 291 298 309 317 309 306 314 317 306 296 293 287 290 298 301 311 317 313 317 323 325 327 330 333 336 339 341 340 334 331 337 341 341 343 345 347 350 348 346 349 345 337 336 336 334 331 328 325 317 301 281 252 234 227 225 224 222 220 221 220 218 217 216 215 215 216 218 219 220 221 224 225
148 122 190 267 267 223 120 19 344 326 185 222 290 319 298 270 296 313 311 304 309 318 317 311 306 304 300 301 302 298 303 311 311 312 316 316 319 325 328 330 333 338 336 328 327 334 339 340 342 347 349 345 341 340 339 337 335 334 334 333 328 326 328 328 320 304 275 248 232 225 223 220 219 219 218 216 216 215 214 214 215 216 218 220 221 223 225
134 152 214 229 206 186 161 105 191 239 248 275 298 300 289 292 311 307 300 302 304 306 310 310 308 306 305 305 302 299 299 304 309 311 310 309 312 316 319 322 329 335 330 324 327 331 335 339 341 345 351 344 336 335 333 330 333 336 334 331 327 326 327 326 321 311 289 260 238 227 223 220 218 217 216 214 213 213 213 213 213 215 217 218 220 223 225
186 196 219 228 211 200 194 180 202 238 268 281 271 265 278 292 294 295 299 300 300 301 302 302 302 302 304 307 308 301 295 292 299 303 300 298 302 307 313 318 326 330 323 320 327 329 332 340 341 341 347 346 334 330 331 332 333 335 332 329 328 326 323 320 317 311 295 270 244 229 222 219 216 215 213 211 210 211 211 211 212 214 216 216 218 221 223
277 259 243 239 250 263 249 216 220 243 258 261 254 266 279 274 272 284 288 287 291 297 295 293 293 294 299 304 306 302 295 291 292 295 293 291 293 300 310 315 322 329 324 318 323 326 330 339 343 341 342 346 341 335 334 337 340 338 336 335 331 322 316 314 313 312 301 275 248 231 222 217 216 215 212 209 208 209 209 210 213 215 215 216 217 220 222
284 272 243 212 214 245 255 258 266 265 252 245 248 256 264 269 270 274 279 282 287 288 285 283 284 285 292 298 300 301 295 290 290 290 289 288 287 292 303 308 314 325 325 318 321 326 329 337 343 341 340 345 348 344 342 345 349 345 339 336 328 316 312 312 312 313 307 284 251 231 220 216 214 214 212 211 209 208 208 209 212 215 216 216 217 219 221
206 253 258 249 247 256 257 259 264 263 254 264 278 273 268 275 275 273 274 276 280 283 282 281 282 283 284 287 291 294 290 285 288 288 285 284 282 285 297 304 306 315 321 318 321 324 327 335 339 338 338 343 348 349 351 355 353 343 334 330 322 313 311 312 311 314 316 301 261 231 219 214 212 211 210 210 210 211 211 211 211 212 215 216 217 218 219
259 281 279 285 293 283 266 235 222 229 249 273 286 290 287 283 280 278 276 272 270 274 279 283 284 282 278 275 283 290 287 280 283 284 285 287 282 280 290 301 301 303 311 317 320 322 327 334 335 334 337 345 348 349 351 354 352 341 331 326 320 315 315 316 316 321 327 323 288 242 223 216 214 213 212 211 212 215 217 217 215 214 215 216 218 219 218
254 261 248 210 232 271 263 230 212 228 253 271 283 290 291 284 281 283 284 280 274 270 273 275 276 277 276 272 275 281 282 277 275 279 285 288 283 277 281 292 297 298 303 315 323 327 333 336 333 330 335 343 349 353 354 352 348 342 334 327 321 319 320 319 318 321 327 331 316 263 233 221 217 217 217 216 216 218 221 222 222 221 220 221 222 221 220
232 235 222 186 182 240 255 242 225 231 245 264 280 286 286 283 282 281 281 282 280 274 272 272 270 269 271 270 267 269 275 274 271 273 278 281 279 276 277 283 292 296 303 317 327 332 339 340 333 328 329 335 346 355 359 354 347 340 336 331 325 323 323 318 315 318 319 324 325 294 247 227 219 217 217 217 219 221 223 225 225 225 225 226 227 225 223
235 239 213 179 182 223 243 243 244 256 261 261 271 282 285 284 285 285 280 277 275 272 271 272 271 268 267 267 264 259 266 272 271 269 272 274 275 274 272 274 284 290 297 312 325 331 338 342 334 327 326 330 341 353 358 354 349 343 338 334 328 326 326 321 318 318 316 317 322 315 273 237 222 216 215 216 219 223 225 226 227 227 228 229 229 229 229
220 223 187 173 195 225 238 255 272 270 265 262 270 286 290 289 293 296 295 289 282 275 270 270 271 271 269 267 264 260 260 265 267 266 266 268 271 269 261 261 275 285 290 301 320 330 336 340 336 329 325 331 341 349 352 351 351 347 339 336 334 331 331 331 327 323 321 319 318 316 298 256 228 218 215 215 218 222 224 225 227 228 229 229 230 231 233
213 195 141 138 234 245 239 286 286 261 261 275 281 286 290 294 300 303 300 296 290 282 275 271 273 275 274 269 265 264 261 260 264 265 262 259 262 262 253 253 270 284 286 294 318 334 338 339 338 333 331 336 342 346 346 345 346 345 339 338 341 338 336 338 337 332 327 322 315 309 302 278 247 231 223 222 224 226 225 224 226 227 228 228 229 231 233
207 170 133 128 288 269 235 237 244 247 279 295 290 289 293 296 299 301 298 292 289 284 280 276 275 276 277 275 271 267 262 259 260 260 257 255 255 253 248 251 264 274 280 300 327 336 338 343 343 337 336 341 345 347 345 341 339 338 339 342 345 346 345 346 344 339 332 323 311 301 292 277 263 251 238 229 228 228 225 223 223 225 226 226 227 228 230
203 187 169 189 232 238 223 222 230 249 285 294 292 296 301 299 298 299 298 294 292 289 285 278 273 272 274 276 274 269 262 257 251 247 252 256 252 239 237 246 255 261 283 323 340 339 339 346 349 343 340 344 348 348 345 339 334 333 338 346 350 352 353 352 349 343 337 328 314 300 288 274 262 252 244 238 235 231 227 225 224 225 227 227 226 227 229
209 205 198 208 221 226 232 253 262 271 286 294 299 303 304 303 303 302 300 300 299 296 292 285 278 273 270 270 271 267 258 249 241 239 246 249 235 212 220 240 254 273 312 346 351 347 344 347 350 347 342 345 349 348 343 338 334 331 336 348 355 356 355 354 351 347 341 335 325 311 297 282 269 261 254 251 249 243 235 230 228 227 228 228 226 225 227
213 200 204 220 225 222 234 255 264 270 279 291 299 302 303 306 307 302 302 303 298 292 293 292 285 277 270 267 267 261 254 249 241 229 223 217 198 178 183 219 261 302 335 353 355 349 344 347 351 348 343 344 346 345 341 336 334 333 338 349 359 3 0 356 354 351 347 340 333 327 317 297 278 268 261 255 250 244 236 232 229 226 225 225 223 221 223
200 194 201 213 213 210 220 235 249 263 273 282 289 295 304 309 308 306 306 304 299 300 301 297 288 276 268 265 263 259 255 251 229 186 168 167 167 152 133 131 105 349 352 356 355 348 341 347 351 347 343 343 343 341 338 335 335 337 341 349 360 7 6 2 0 358 354 347 339 334 331 318 298 280 266 256 249 241 235 231 227 224 223 224 223 222 222
168 189 209 217 209 209 222 229 237 254 266 275 284 290 295 301 306 311 310 306 308 313 310 302 299 294 276 260 253 251 246 229 177 143 134 136 138 126 109 101 89 55 19 4 359 349 343 350 354 348 343 343 342 340 340 339 337 337 341 351 3 9 8 7 7 3 359 355 347 339 333 327 316 300 280 262 248 240 237 235 229 224 225 226 227 227 226
155 180 214 217 203 205 226 234 233 244 257 261 265 274 285 294 300 306 309 310 313 317 316 318 332 334 314 271 238 225 208 168 135 124 119 112 105 101 97 92 77 50 26 14 7 357 351 355 357 352 346 342 341 343 346 345 340 338 341 354 8 12 10 11 11 8 3 359 353 345 338 330 322 315 303 285 266 249 241 239 239 235 232 231 232 231 228
177 190 200 196 189 193 208 218 221 232 250 262 268 275 288 298 302 309 317 320 319 323 330 338 349 354 345 318 249 194 165 135 116 110 100 88 84 84 86 81 62 31 18 14 9 2 359 2 0 354 349 344 341 347 354 350 342 339 345 359 12 18 15 13 15 14 9 2 354 349 344 337 330 326 320 309 294 271 248 238 239 242 240 238 238 235 230
189 195 195 187 185 186 187 191 205 220 236 257 274 283 294 303 310 319 327 329 328 334 344 350 1 11 4 353 4 91 100 90 85 82 72 65 67 71 72 67 47 14 5 6 5 3 4 6 1 355 352 348 346 353 359 353 343 342 350 1 16 27 25 20 18 17 13 7 1 355 350 346 343 342 337 328 315 296 270 248 240 241 243 244 241 235 229
178 175 177 183 183 181 181 191 207 218 230 250 268 285 302 315 323 328 331 333 337 344 353 1 12 24 19 7 12 41 60 66 72 71 60 52 57 62 61 54 36 12 359 356 359 3 6 5 1 360 2 359 354 357 359 352 344 346 358 10 27 39 39 33 27 22 18 15 11 2 354 354 0 6 4 355 341 326 309 282 256 244 240 237 230 216 204
173 166 166 176 178 180 190 206 217 225 242 262 276 290 305 319 331 336 338 341 346 353 3 12 19 29 31 23 19 28 39 48 57 60 56 52 52 52 50 43 32 22 8 355 355 2 6 4 3 9 17 12 3 0 359 352 348 356 11 21 33 45 47 43 36 29 23 19 16 10 6 8 14 22 26 23 15 6 0 349 310 254 220 196 180 170 162
173 172 173 178 180 185 199 218 226 226 239 258 274 296 316 330 342 349 351 352 355 1 10 17 22 31 37 35 32 33 33 34 39 44 47 47 48 48 45 33 21 17 14 6 5 7 5 3 6 15 22 17 8 3 360 353 354 9 23 28 36 46 49 47 42 36 29 23 18 16 18 22 25 29 33 35 34 32 31 34 38 51 102 133 141 140 136
170 176 179 178 180 188 206 227 229 220 226 249 268 292 327 349 2 8 6 2 4 11 16 16 22 35 38 35 33 33 32 33 35 35 36 39 45 49 42 25 16 14 13 14 16 14 5 2 10 18 21 17 11 7 3 359 3 19 31 37 43 49 52 52 50 44 37 32 27 23 23 29 34 36 37 40 43 43 44 47 53 59 67 79 95 108 112
170 178 177 172 172 182 197 211 212 207 210 234 261 287 326 355 11 21 18 9 9 17 22 21 24 32 34 32 31 28 29 34 36 34 33 36 38 40 34 19 13 13 14 17 19 16 9 8 14 18 20 20 16 9 7 11 20 29 36 41 48 54 56 56 56 52 45 39 35 32 30 33 38 41 43 45 47 48 48 49 53 59 64 67 76 89 98
167 172 169 165 162 165 172 183 190 196 205 217 238 283 339 11 25 33 32 24 23 28 32 33 34 33 31 34 36 34 32 34 36 35 36 34 30 30 27 14 9 9 13 17 21 21 19 20 20 18 20 24 21 14 15 25 34 37 40 45 50 55 58 58 58 57 53 48 44 41 39 39 41 43 46 48 49 50 51 52 54 59 65 70 73 80 89
160 162 159 156 155 155 159 167 172 180 200 215 218 236 5 37 48 53 53 48 42 39 39 40 40 38 35 36 38 37 33 31 33 37 41 38 29 22 17 12 9 10 14 22 27 28 26 25 24 24 25 27 26 26 30 37 40 43 46 50 52 56 60 62 62 62 60 57 53 49 47 47 46 46 47 49 50 51 52 53 53 57 64 70 73 76 84
161 162 155 152 156 157 157 158 160 166 184 203 202 190 80 51 59 66 68 57 45 41 41 40 38 37 36 35 34 31 27 22 22 29 41 43 36 29 21 14 11 13 21 30 31 29 28 27 28 31 34 35 36 40 45 46 45 47 51 55 56 58 62 66 67 65 63 60 58 55 53 54 53 52 51 51 53 54 55 55 56 60 65 69 70 71 76
164 166 158 153 157 160 159 160 161 162 171 187 192 181 121 61 63 75 78 64 46 40 43 40 34 32 32 31 28 24 20 19 18 19 25 39 40 33 25 18 13 16 25 34 35 32 31 32 33 37 40 41 42 46 50 50 48 47 50 55 59 62 65 68 69 68 66 64 62 60 58 58 59 59 58 57 58 60 61 60 60 64 71 73 72 70 72
164 168 161 155 157 161 160 162 165 162 164 176 180 172 139 83 78 84 86 76 56 45 44 42 36 30 27 27 29 29 28 29 28 24 22 28 32 27 23 21 18 19 25 34 37 35 34 36 40 43 45 46 48 50 50 50 50 49 50 53 59 64 69 71 72 72 71 70 68 67 64 63 64 65 66 65 64 65 67 67 65 64 70 75 75 71 71
159 162 161 158 160 164 164 165 165 158 155 161 163 157 151 132 103 94 90 82 69 60 55 51 47 41 34 32 34 34 33 36 39 38 35 36 35 29 25 25 24 24 26 32 35 35 35 39 46 50 51 52 54 54 52 51 53 53 52 54 58 64 68 72 74 76 76 75 74 73 71 69 68 69 70 71 70 69 69 70 70 67 68 73 77 74 72
159 160 164 163 162 163 165 165 160 149 144 147 153 159 164 157 125 105 98 93 82 73 66 59 55 50 44 38 34 28 23 25 33 38 38 39 39 37 33 32 31 30 29 30 32 33 35 40 47 54 56 56 55 55 54 54 56 56 56 57 60 63 67 70 73 77 81 82 80 78 77 74 73 73 73 73 74 73 71 71 72 72 71 73 75 75 75
164 158 161 159 155 156 159 161 159 156 150 151 160 167 164 151 130 117 113 108 98 85 76 69 60 51 42 36 32 27 19 16 24 35 36 36 37 37 36 35 35 35 33 33 33 34 34 36 42 51 57 58 55 54 55 57 59 60 60 60 61 62 65 68 71 75 80 83 83 82 81 78 76 76 76 75 76 76 76 74 74 75 75 75 75 76 76
152 145 144 146 147 149 150 149 151 159 160 158 164 167 161 145 135 135 126 112 104 95 80 60 40 30 27 25 25 26 26 29 38 42 40 39 40 41 39 38 38 38 37 38 37 35 35 36 40 46 53 56 56 55 57 59 61 62 62 63 63 63 64 67 72 75 78 81 82 82 82 81 79 79 79 79 79 80 80 80 79 79 80 80 79 79 80
149 143 143 147 150 148 146 142 143 155 164 165 167 167 161 152 150 152 136 114 108 98 73 48 35 34 38 42 39 37 41 55 73 66 50 45 45 45 43 43 42 41 42 45 44 42 41 42 43 45 49 52 53 55 59 62 63 64 64 65 66 66 66 67 71 74 77 79 80 80 80 81 81 81 81 81 81 83 84 86 87 87 88 87 86 86 87
158 155 154 156 156 153 148 141 133 142 157 163 166 165 163 161 163 165 155 135 120 94 69 57 52 49 52 57 56 52 54 67 85 85 70 61 58 55 52 51 50 48 49 52 53 52 50 48 47 48 50 51 51 53 57 61 62 64 65 66 68 69 69 70 71 72 74 77 79 80 80 81 81 81 81 82 82 83 85 87 89 90 90 90 90 91 91
174 171 157 152 150 145 139 131 126 136 147 155 162 166 167 167 166 168 167 152 126 97 79 69 62 57 58 63 63 60 60 67 78 85 81 74 68 62 57 55 55 55 55 56 56 57 57 57 55 53 53 53 54 54 57 59 61 63 64 65 67 68 69 71 72 73 73 74 77 79 82 83 84 84 85 86 87 88 89 90 92 93 93 93 93 92 90